• In Hungary
  • List of Countries
  • For 7 days
  • Water Temperature
  • Satellite Maps
  • Weather Map
  • News
  • Weather Widgets
  • user-avatar
    Login

    Hourly Weather Elbasan

    Today, 22 July, Sunday

    Time Temperature Precipitation Wind Pressure Humidity
    00:00 +23°C° 0 mm 2 mps 734 mmHg 59%
    01:00 +23°C° 0 mm 2 mps 733 mmHg 60%
    02:00 +23°C° 0 mm 2 mps 733 mmHg 59%
    03:00 +23°C° 0 mm 2 mps 733 mmHg 58%
    04:00 +23°C° 0 mm 2 mps 733 mmHg 57%
    05:00 +25°C° 0 mm 2 mps 733 mmHg 55%
    06:00 +26°C° 0 mm 2 mps 733 mmHg 53%
    07:00 +28°C° 0 mm 2 mps 733 mmHg 51%
    08:00 +30°C° 0 mm 3 mps 733 mmHg 45%
    09:00 +33°C° 0 mm 4 mps 733 mmHg 39%
    10:00 +35°C° 0 mm 4 mps 733 mmHg 34%
    11:00 +35°C° 0 mm 5 mps 733 mmHg 35%
    12:00 +35°C° 0 mm 6 mps 732 mmHg 36%
    13:00 +34°C° 0 mm 6 mps 733 mmHg 37%
    14:00 +34°C° 0 mm 5 mps 732 mmHg 40%
    15:00 +34°C° 0 mm 5 mps 732 mmHg 43%
    16:00 +33°C° 0 mm 4 mps 732 mmHg 45%
    17:00 +30°C° 0 mm 3 mps 732 mmHg 53%
    18:00 +28°C° 0 mm 3 mps 732 mmHg 60%
    19:00 +26°C° 0 mm 2 mps 732 mmHg 68%
    20:00 +25°C° 0 mm 2 mps 732 mmHg 70%
    21:00 +24°C° 0 mm 1 mps 732 mmHg 72%
    22:00 +24°C° 0 mm 1 mps 732 mmHg 74%
    23:00 +23°C° 0 mm 1 mps 732 mmHg 72%

    Tomorrow, 23 July, Monday

    Time Temperature Precipitation Wind Pressure Humidity
    00:00 +23°C° 0 mm 1 mps 732 mmHg 71%
    01:00 +23°C° 0 mm 1 mps 732 mmHg 70%
    02:00 +23°C° 0 mm 1 mps 731 mmHg 69%
    03:00 +23°C° 0 mm 1 mps 731 mmHg 68%
    04:00 +22°C° 0 mm 1 mps 731 mmHg 67%
    05:00 +24°C° 0.1 mm 1 mps 730 mmHg 65%
    06:00 +25°C° 0.1 mm 1 mps 730 mmHg 63%
    07:00 +26°C° 0.1 mm 1 mps 730 mmHg 61%
    08:00 +28°C° 0.2 mm 1 mps 730 mmHg 57%
    09:00 +29°C° 0.2 mm 2 mps 729 mmHg 53%
    10:00 +30°C° 0.2 mm 2 mps 729 mmHg 49%
    11:00 +30°C° 1 mm 3 mps 729 mmHg 50%
    12:00 +30°C° 1 mm 4 mps 729 mmHg 51%
    13:00 +30°C° 1 mm 4 mps 728 mmHg 53%
    14:00 +29°C° 1.7 mm 4 mps 728 mmHg 57%
    15:00 +28°C° 1.7 mm 3 mps 728 mmHg 62%
    16:00 +26°C° 1.7 mm 2 mps 728 mmHg 66%
    17:00 +25°C° 0.8 mm 2 mps 728 mmHg 72%
    18:00 +24°C° 0.8 mm 2 mps 728 mmHg 78%
    19:00 +23°C° 0.8 mm 2 mps 728 mmHg 84%
    20:00 +21°C° 0.3 mm 2 mps 728 mmHg 86%
    21:00 +21°C° 0.3 mm 2 mps 729 mmHg 88%
    22:00 +21°C° 0.3 mm 1 mps 729 mmHg 90%
    23:00 +21°C° 0.1 mm 1 mps 729 mmHg 90%

    Day after tomorrow, 24 July, Tuesday

    Time Temperature Precipitation Wind Pressure Humidity
    00:00 +20°C° 0.1 mm 1 mps 729 mmHg 91%
    01:00 +20°C° 0.1 mm 1 mps 728 mmHg 92%
    02:00 +20°C° 0 mm 1 mps 728 mmHg 91%
    03:00 +19°C° 0 mm 1 mps 728 mmHg 91%
    04:00 +19°C° 0 mm 1 mps 728 mmHg 90%
    05:00 +21°C° 0 mm 1 mps 728 mmHg 84%
    06:00 +22°C° 0 mm 1 mps 728 mmHg 78%
    07:00 +24°C° 0 mm 1 mps 728 mmHg 72%
    08:00 +25°C° 0 mm 2 mps 728 mmHg 65%
    09:00 +27°C° 0 mm 2 mps 729 mmHg 59%
    10:00 +28°C° 0 mm 3 mps 729 mmHg 52%
    11:00 +29°C° 0.2 mm 3 mps 729 mmHg 52%
    12:00 +29°C° 0.2 mm 3 mps 728 mmHg 51%
    13:00 +30°C° 0.2 mm 4 mps 728 mmHg 51%
    14:00 +29°C° 0.3 mm 4 mps 728 mmHg 52%
    15:00 +29°C° 0.3 mm 4 mps 728 mmHg 53%
    16:00 +29°C° 0.3 mm 4 mps 728 mmHg 54%
    17:00 +28°C° 0.2 mm 3 mps 728 mmHg 61%
    18:00 +26°C° 0.2 mm 3 mps 729 mmHg 67%
    19:00 +24°C° 0.2 mm 2 mps 729 mmHg 74%
    20:00 +23°C° 0.1 mm 2 mps 729 mmHg 76%
    21:00 +23°C° 0.1 mm 2 mps 729 mmHg 78%
    22:00 +22°C° 0.1 mm 1 mps 729 mmHg 80%
    23:00 +22°C° 0 mm 1 mps 729 mmHg 80%

    25 July, Wednesday

    Time Temperature Precipitation Wind Pressure Humidity
    00:00 +21°C° 0 mm 1 mps 729 mmHg 80%
    01:00 +21°C° 0 mm 1 mps 729 mmHg 80%
    02:00 +21°C° 0 mm 1 mps 729 mmHg 80%
    03:00 +21°C° 0 mm 1 mps 729 mmHg 80%
    04:00 +21°C° 0 mm 1 mps 729 mmHg 80%
    05:00 +22°C° 0 mm 1 mps 729 mmHg 75%
    06:00 +24°C° 0 mm 1 mps 730 mmHg 71%
    07:00 +25°C° 0 mm 1 mps 730 mmHg 66%
    08:00 +27°C° 0 mm 1 mps 730 mmHg 61%
    09:00 +28°C° 0 mm 2 mps 730 mmHg 56%
    10:00 +30°C° 0 mm 2 mps 730 mmHg 51%
    11:00 +30°C° 0.8 mm 2 mps 730 mmHg 51%
    12:00 +30°C° 0.8 mm 3 mps 730 mmHg 51%
    13:00 +31°C° 0.8 mm 3 mps 729 mmHg 50%
    14:00 +30°C° 1.1 mm 3 mps 729 mmHg 54%
    15:00 +29°C° 1.1 mm 3 mps 729 mmHg 57%
    16:00 +28°C° 1.1 mm 3 mps 729 mmHg 61%
    17:00 +27°C° 0.3 mm 2 mps 729 mmHg 66%
    18:00 +26°C° 0.3 mm 2 mps 729 mmHg 71%
    19:00 +25°C° 0.3 mm 1 mps 730 mmHg 76%
    20:00 +24°C° 0 mm 1 mps 730 mmHg 78%
    21:00 +23°C° 0 mm 1 mps 730 mmHg 79%
    22:00 +23°C° 0 mm 1 mps 730 mmHg 81%
    23:00 +23°C° 0 mm 1 mps 730 mmHg 81%

    26 July, Thursday

    Time Temperature Precipitation Wind Pressure Humidity
    00:00 +22°C° 0 mm 1 mps 730 mmHg 81%
    01:00 +22°C° 0 mm 1 mps 730 mmHg 81%
    02:00 +22°C° 0 mm 1 mps 730 mmHg 81%
    03:00 +21°C° 0 mm 1 mps 730 mmHg 81%
    04:00 +21°C° 0 mm 1 mps 730 mmHg 81%
    05:00 +23°C° 0 mm 1 mps 730 mmHg 76%
    06:00 +24°C° 0 mm 1 mps 730 mmHg 72%
    07:00 +26°C° 0 mm 1 mps 731 mmHg 67%
    08:00 +27°C° 0.2 mm 1 mps 731 mmHg 62%
    09:00 +29°C° 0.2 mm 1 mps 731 mmHg 56%
    10:00 +30°C° 0.2 mm 1 mps 731 mmHg 51%
    11:00 +31°C° 0.6 mm 2 mps 731 mmHg 50%
    12:00 +31°C° 0.6 mm 2 mps 730 mmHg 49%
    13:00 +33°C° 0.6 mm 3 mps 730 mmHg 48%
    14:00 +31°C° 1.1 mm 3 mps 730 mmHg 52%
    15:00 +30°C° 1.1 mm 3 mps 730 mmHg 55%
    16:00 +30°C° 1.1 mm 3 mps 730 mmHg 59%
    17:00 +28°C° 0.9 mm 2 mps 730 mmHg 65%
    18:00 +27°C° 0.9 mm 2 mps 731 mmHg 71%
    19:00 +25°C° 0.9 mm 1 mps 731 mmHg 76%
    20:00 +25°C° 0.2 mm 1 mps 731 mmHg 77%
    21:00 +24°C° 0.2 mm 1 mps 731 mmHg 78%
    22:00 +24°C° 0.2 mm 1 mps 732 mmHg 78%
    23:00 +24°C° 0 mm 1 mps 732 mmHg 79%

    27 July, Friday

    Time Temperature Precipitation Wind Pressure Humidity
    00:00 +23°C° 0 mm 1 mps 731 mmHg 79%
    01:00 +23°C° 0 mm 1 mps 731 mmHg 80%
    02:00 +23°C° 0 mm 1 mps 731 mmHg 80%
    03:00 +23°C° 0 mm 1 mps 731 mmHg 80%
    04:00 +22°C° 0 mm 1 mps 731 mmHg 80%
    05:00 +24°C° 0 mm 1 mps 731 mmHg 76%
    06:00 +25°C° 0 mm 1 mps 732 mmHg 71%
    07:00 +27°C° 0 mm 1 mps 732 mmHg 67%
    08:00 +28°C° 0.3 mm 1 mps 732 mmHg 62%
    09:00 +29°C° 0.3 mm 1 mps 732 mmHg 57%
    10:00 +31°C° 0.3 mm 2 mps 732 mmHg 52%
    11:00 +31°C° 0.8 mm 2 mps 732 mmHg 51%
    12:00 +31°C° 0.8 mm 2 mps 731 mmHg 51%
    13:00 +33°C° 0.8 mm 3 mps 731 mmHg 51%
    14:00 +31°C° 1.1 mm 3 mps 731 mmHg 54%
    15:00 +30°C° 1.1 mm 3 mps 731 mmHg 57%
    16:00 +30°C° 1.1 mm 3 mps 731 mmHg 60%
    17:00 +29°C° 0.5 mm 2 mps 731 mmHg 65%
    18:00 +27°C° 0.5 mm 2 mps 731 mmHg 69%
    19:00 +26°C° 0.5 mm 1 mps 731 mmHg 74%
    20:00 +25°C° 0.1 mm 1 mps 731 mmHg 75%
    21:00 +25°C° 0.1 mm 1 mps 732 mmHg 77%
    22:00 +24°C° 0.1 mm 1 mps 732 mmHg 78%
    23:00 +24°C° 0.1 mm 1 mps 731 mmHg 79%
    Show more